[[{"header":{"parameterUnit":"m.s-1","parameterCategory":1,"la1":30.2991,"la2":30.254,"lo1":-89.0895,"lo2":-89.0444,"dy":0.0017,"dx":0.0017,"nx":28,"ny":28,"refTime":"2024-06-21T21:00:00:Z","depth":0,"parameterNumber":2,"parameterNumberName":"U-component_of_WINDS"},"data":[0,0,0,0,0,0,0,0,0,0,0,0,0,0,0,0,0,0,0,0,0,0,0,0,0,0,0,0,0,0,0,0,0,0,0,0,0,0,0,0,0,0,0,0,0,0,0,0,0,0,0,0,0,0,0,0,0,0,0.5289,0.529,0,0.5354,0.5354,0.5355,0.5416,0.5417,0.5418,0.5419,0.5482,0.5483,0.5484,0,0,0,0,0,0,0,0,0,0,0,0,0,0.5217,0.5218,0.5289,0.529,0.5291,0.5353,0.5354,0.5355,0.5416,0.5417,0.5418,0.5419,0.5482,0.5483,0.5484,0,0,0,0,0,0,0,0,0,0,0,0,0,0.5261,0.5218,0.5289,0.5329,0.5333,0.5353,0.5354,0.5355,0.5416,0.5417,0.5418,0.542,0.5481,0.5483,0.5484,0.5469,0,0,0.5489,0.5489,0,0,0,0,0,0,0,0,0.5259,0.5264,0.5322,0.5326,0.5331,0.5378,0.5352,0.5393,0.5416,0.5384,0.5419,0.542,0.5446,0.5451,0.546,0.5472,0.5475,0.5489,0.549,0.549,0.5491,0,0,0,0,0,0,0,0.5256,0.5261,0.5315,0.5323,0.5328,0.5343,0.535,0.536,0.5408,0.5387,0.5392,0.5399,0.5449,0.5459,0.5462,0.5476,0.5489,0.549,0.5491,0.5491,0.5479,0.5478,0,0,0,0,0,0,0.5247,0.5259,0.5312,0.5316,0.5297,0.5343,0.5352,0.5362,0.5408,0.5416,0.5398,0.5401,0.5456,0.546,0.5465,0.545,0.549,0.5492,0.5492,0.548,0.5479,0.5478,0,0,0,0,0,0,0.5245,0.5251,0.531,0.5289,0.5297,0.5343,0.5354,0.5362,0.5372,0.5416,0.5425,0.5399,0.5457,0.5463,0.5468,0.5453,0.5492,0.5493,0.5482,0.548,0.5478,0.542,0,0,0,0,0,0,0.5243,0.525,0.5245,0.5288,0.5298,0.5312,0.5353,0.5363,0.5375,0.538,0.5419,0.5427,0.5458,0.5465,0.5469,0.5456,0.5495,0.5483,0.5481,0.5479,0.5424,0.5417,0.5411,0,0,0,0,0,0.524,0.5226,0.5245,0.5251,0.5293,0.5311,0.5317,0.5354,0.5373,0.5369,0.5397,0.5426,0.5454,0.5465,0.547,0.5457,0.5484,0.5481,0.5479,0.5427,0.5418,0.5411,0,0,0,0,0,0,0.5179,0.5232,0.5254,0.5253,0.5277,0.5322,0.5317,0.5344,0.5362,0.5367,0.5411,0.5419,0.5419,0.5439,0.545,0.5445,0.5473,0.5471,0.5432,0.5424,0.5418,0.5413,0.5496,0,0,0,0,0,0.5165,0.5176,0.5222,0.5217,0.5229,0.5271,0.528,0.5306,0.5333,0.5343,0.5372,0.5395,0.541,0.5418,0.5434,0.5428,0.5436,0.5421,0.5414,0.5409,0.5406,0.5404,0.5397,0.5469,0.5469,0.5469,0,0,0.5137,0.5168,0.5172,0.5206,0.5228,0.5237,0.5279,0.5287,0.5294,0.5344,0.5351,0.5373,0.5402,0.5401,0.5402,0.5418,0.5389,0.5405,0.5401,0.5401,0.54,0.5393,0.5387,0.5467,0.5467,0.5468,0,0,0.5091,0.5116,0.5115,0.5136,0.5169,0.5197,0.5197,0.5238,0.5254,0.5262,0.5299,0.5309,0.5333,0.5352,0.5365,0.5327,0.5354,0.5331,0.5297,0.5294,0.5288,0.5284,0.5269,0.5264,0.5329,0.5329,0.5329,0,0.5052,0.5069,0.511,0.5117,0.513,0.5177,0.5175,0.5194,0.523,0.5238,0.5255,0.5286,0.5309,0.5313,0.5304,0.5314,0.5314,0.5326,0.5286,0.5282,0.5278,0.5265,0.5259,0.5326,0.5326,0.5326,0.5327,0,0.5019,0.503,0.5025,0.5059,0.5073,0.5075,0.5116,0.5124,0.5149,0.5175,0.5183,0.5213,0.5235,0.5238,0.5263,0.5246,0.5254,0.5278,0.5307,0.5267,0.5255,0.5251,0.5321,0.5322,0.5323,0.5324,0,0,0.4935,0.4993,0.499,0.5007,0.5047,0.5056,0.506,0.5083,0.5089,0.5112,0.5116,0.5136,0.5159,0.5173,0.5201,0.5198,0.5166,0.5223,0.5224,0.521,0.5148,0.5129,0.5122,0.5185,0.5184,0.5183,0.5145,0,0.4895,0.4906,0.4944,0.4943,0.4954,0.4999,0.5002,0.5027,0.5052,0.5063,0.5091,0.5104,0.5133,0.5142,0.5142,0.517,0.5154,0.5173,0.5188,0.5188,0.5178,0.5116,0.5096,0.5059,0.5141,0.514,0.514,0,0.4849,0.4871,0.4871,0.4912,0.4917,0.492,0.4944,0.4955,0.4984,0.5002,0.5019,0.505,0.5056,0.5084,0.5093,0.5106,0.5114,0.5129,0.5128,0.513,0.516,0.5115,0.5048,0.5042,0.5133,0.5134,0.5134,0,0.4786,0.4816,0.482,0.4833,0.488,0.488,0.49,0.493,0.4942,0.4963,0.497,0.4991,0.5003,0.5018,0.5053,0.5071,0.5058,0.5089,0.5072,0.5071,0.5067,0.5066,0.4998,0.5074,0.5074,0.5074,0.5074,0,0.4737,0.4735,0.4792,0.4795,0.4794,0.4838,0.4836,0.4859,0.4886,0.4893,0.4934,0.4939,0.4987,0.4998,0.5026,0.5028,0.5033,0.5048,0.5055,0.5043,0.5041,0.5048,0.5051,0.5073,0.5073,0.5073,0.5073,0,0.4666,0.4705,0.4712,0.4757,0.4768,0.4765,0.4803,0.4807,0.4835,0.4843,0.4848,0.4891,0.4906,0.4943,0.4968,0.4987,0.4982,0.4996,0.4972,0.4976,0.4957,0.4958,0.489,0.4883,0.4964,0.4963,0.4962,0,0.4632,0.4632,0.4676,0.4685,0.4703,0.4716,0.4728,0.4771,0.4781,0.4815,0.4814,0.4833,0.485,0.4872,0.4905,0.4924,0.4938,0.4913,0.4941,0.4929,0.4936,0.4935,0.4935,0.4906,0.4905,0.4904,0.4904,0,0.4565,0.4585,0.4601,0.4624,0.4638,0.4658,0.468,0.4684,0.4732,0.4742,0.4759,0.4772,0.4798,0.4816,0.484,0.486,0.4889,0.4895,0.4892,0.4879,0.4865,0.4871,0.4954,0.4896,0.4896,0.4897,0.4897,0.4898,0.4511,0.4513,0.4545,0.4562,0.4584,0.4603,0.4609,0.4638,0.4653,0.4678,0.4702,0.4716,0.4745,0.4781,0.4799,0.4809,0.4825,0.482,0.4819,0.4817,0.4811,0.4864,0.4814,0.4814,0.4815,0.4815,0.4815,0,0.4446,0.4469,0.4485,0.4515,0.4528,0.4556,0.4582,0.4591,0.4603,0.4628,0.4645,0.4663,0.4681,0.4716,0.4736,0.4738,0.4752,0.4742,0.4741,0.4745,0.4797,0.4797,0.473,0.473,0.473,0.473,0.473,0.473,0.4414,0.4418,0.4441,0.4457,0.448,0.4495,0.4507,0.4526,0.4546,0.4565,0.458,0.4603,0.4632,0.4655,0.4672,0.4682,0.4687,0.4672,0.4686,0.4734,0.4742,0.4749,0.4749,0.4673,0.4673,0.4633,0.4633,0.4632]},{"header":{"parameterUnit":"m.s-1","parameterCategory":1,"la1":30.2991,"la2":30.254,"lo1":-89.0895,"lo2":-89.0444,"dy":0.0017,"dx":0.0017,"nx":28,"ny":28,"refTime":"2024-06-21T21:00:00:Z","depth":0,"parameterNumber":3,"parameterNumberName":"V-component_of_WINDS"},"data":[0,0,0,0,0,0,0,0,0,0,0,0,0,0,0,0,0,0,0,0,0,0,0,0,0,0,0,0,0,0,0,0,0,0,0,0,0,0,0,0,0,0,0,0,0,0,0,0,0,0,0,0,0,0,0,0,0,0,0.2489,0.2488,0,0.2414,0.2413,0.2412,0.2362,0.2362,0.2362,0.2361,0.2284,0.2283,0.2281,0,0,0,0,0,0,0,0,0,0,0,0,0,0.259,0.2589,0.2489,0.2488,0.2487,0.2414,0.2413,0.2412,0.2362,0.2362,0.2362,0.2361,0.2285,0.2283,0.2281,0,0,0,0,0,0,0,0,0,0,0,0,0,0.2534,0.2588,0.2489,0.2454,0.245,0.2414,0.2413,0.2412,0.2363,0.2362,0.2362,0.2361,0.2286,0.2283,0.2281,0.2275,0,0,0.2273,0.2272,0,0,0,0,0,0,0,0,0.2537,0.253,0.246,0.2456,0.2452,0.2397,0.242,0.2366,0.2363,0.2396,0.2361,0.2361,0.2322,0.2317,0.2304,0.2271,0.2268,0.2272,0.2271,0.227,0.2269,0,0,0,0,0,0,0,0.2541,0.2533,0.2459,0.2459,0.2454,0.2442,0.2433,0.241,0.2363,0.2393,0.2389,0.2381,0.232,0.2306,0.2302,0.2267,0.2272,0.227,0.2269,0.2268,0.2226,0.2226,0,0,0,0,0,0,0.2551,0.2537,0.2462,0.2457,0.2494,0.244,0.2431,0.2415,0.2363,0.2354,0.2381,0.2379,0.2311,0.2305,0.2299,0.2288,0.227,0.2267,0.2266,0.2225,0.2226,0.2226,0,0,0,0,0,0,0.2553,0.2544,0.2465,0.2496,0.2485,0.2439,0.2422,0.2414,0.24,0.2354,0.2346,0.2376,0.231,0.2302,0.2281,0.2285,0.2266,0.2264,0.2225,0.2225,0.2226,0.2268,0,0,0,0,0,0,0.2556,0.2546,0.2543,0.2496,0.2483,0.2449,0.2422,0.2413,0.2396,0.2392,0.2347,0.2339,0.2309,0.2285,0.2278,0.2281,0.2262,0.2224,0.2225,0.2226,0.2266,0.227,0.2273,0,0,0,0,0,0.256,0.2557,0.2543,0.2534,0.2479,0.2449,0.2442,0.2407,0.2396,0.2393,0.2364,0.234,0.2286,0.2283,0.2275,0.2277,0.2224,0.2225,0.2226,0.2264,0.2269,0.2273,0,0,0,0,0,0,0.2606,0.2551,0.2534,0.2516,0.2488,0.2441,0.2435,0.2414,0.2388,0.2385,0.2344,0.2334,0.2317,0.2295,0.2293,0.2269,0.2252,0.2251,0.2284,0.2288,0.2292,0.2297,0.226,0,0,0,0,0,0.2614,0.2594,0.2547,0.2536,0.2523,0.2482,0.2467,0.2444,0.2412,0.24,0.2369,0.2339,0.2315,0.23,0.2276,0.2262,0.2252,0.226,0.2263,0.2267,0.2267,0.2258,0.2261,0.2229,0.2229,0.2229,0,0,0.263,0.2598,0.2588,0.2544,0.2519,0.25,0.2472,0.2452,0.2437,0.2397,0.2375,0.2351,0.2316,0.2298,0.2289,0.2279,0.2273,0.2268,0.2271,0.2269,0.2259,0.2263,0.2265,0.223,0.223,0.223,0,0,0.265,0.2624,0.2611,0.2587,0.255,0.2522,0.252,0.2476,0.2459,0.2436,0.2405,0.2387,0.2347,0.2323,0.2305,0.2317,0.2294,0.231,0.2329,0.2321,0.2324,0.2326,0.233,0.2332,0.231,0.231,0.231,0,0.2675,0.2644,0.2608,0.259,0.2572,0.2535,0.2523,0.2501,0.2457,0.2446,0.2436,0.2384,0.2358,0.2334,0.2337,0.2324,0.232,0.2315,0.2326,0.2328,0.2329,0.2333,0.2334,0.2312,0.2312,0.2312,0.2312,0,0.2677,0.2657,0.2651,0.261,0.2592,0.2577,0.2539,0.2524,0.2502,0.2477,0.2454,0.2421,0.2389,0.2382,0.236,0.2355,0.2351,0.2334,0.2316,0.2335,0.2338,0.2339,0.2315,0.2314,0.2314,0.2313,0,0,0.2724,0.2663,0.2662,0.2643,0.2599,0.2582,0.2566,0.2535,0.2523,0.2495,0.248,0.2447,0.2431,0.2412,0.2387,0.238,0.2392,0.2364,0.2362,0.237,0.2385,0.2398,0.24,0.2377,0.2377,0.2377,0.2388,0,0.2737,0.2705,0.2673,0.2653,0.2633,0.2598,0.2583,0.2555,0.2531,0.251,0.2483,0.2461,0.2441,0.2429,0.2421,0.2392,0.2394,0.2391,0.2363,0.2362,0.2373,0.2401,0.2415,0.2426,0.2388,0.2389,0.2389,0,0.2748,0.2721,0.27,0.2658,0.2648,0.2636,0.2605,0.2587,0.2554,0.2537,0.2515,0.2489,0.247,0.2454,0.2428,0.2427,0.2413,0.2397,0.2397,0.2393,0.2377,0.2398,0.2429,0.2431,0.239,0.239,0.239,0,0.2784,0.2743,0.2725,0.2709,0.266,0.2653,0.2632,0.2598,0.2582,0.2555,0.2544,0.2515,0.25,0.2478,0.2445,0.2437,0.2422,0.2404,0.2407,0.2408,0.2406,0.2406,0.2436,0.2397,0.2397,0.2397,0.2397,0,0.2803,0.2791,0.274,0.2729,0.2715,0.2677,0.2664,0.264,0.2611,0.2595,0.2562,0.2547,0.2505,0.2485,0.2459,0.2441,0.2434,0.242,0.2413,0.2423,0.2425,0.2413,0.2412,0.2398,0.2398,0.2398,0.2397,0,0.2841,0.2806,0.2784,0.2739,0.2728,0.2719,0.2681,0.2669,0.2643,0.2622,0.2615,0.2574,0.2549,0.2514,0.2479,0.2461,0.2447,0.2436,0.2458,0.2454,0.246,0.246,0.2483,0.2484,0.2446,0.2446,0.2446,0,0.2855,0.2845,0.2799,0.2786,0.2766,0.2745,0.2728,0.2691,0.2675,0.2637,0.2629,0.2602,0.2578,0.254,0.2507,0.248,0.2468,0.2478,0.2464,0.2474,0.2468,0.2469,0.2468,0.2482,0.2482,0.2483,0.2483,0,0.2883,0.2867,0.2843,0.2815,0.2795,0.2771,0.2745,0.2736,0.2693,0.2676,0.2651,0.2632,0.2596,0.2569,0.2538,0.2516,0.2493,0.2488,0.2487,0.2497,0.251,0.2503,0.2468,0.2488,0.2487,0.2487,0.2487,0.2486,0.2909,0.2899,0.2865,0.2841,0.2817,0.2794,0.278,0.2752,0.273,0.2698,0.2677,0.2653,0.262,0.2576,0.2555,0.2536,0.2526,0.2525,0.2525,0.2525,0.2529,0.2514,0.253,0.253,0.2529,0.2529,0.2529,0,0.2936,0.2913,0.2891,0.2855,0.2836,0.2816,0.2786,0.2771,0.275,0.2722,0.2699,0.267,0.2644,0.2609,0.2581,0.2572,0.256,0.2565,0.2566,0.2561,0.2539,0.2542,0.2575,0.2575,0.2575,0.2575,0.2575,0.2575,0.2948,0.2929,0.2909,0.2879,0.2855,0.2831,0.2816,0.2794,0.2771,0.274,0.2718,0.2696,0.2665,0.2634,0.261,0.26,0.2591,0.26,0.2587,0.2567,0.2563,0.2559,0.2562,0.2599,0.2599,0.2611,0.2612,0.2612]}]]